sat.trackr.live / text

‹ back to catalog

STARLINK-37234

NORAD 68535 · 2026-068AD

PAYLOAD ACTIVE UNKNOWN

§ Identity

Operator
Country
US
Launch date
2026-03-30
Launch site
AFETR
Launch vehicle
Mass (kg)
RCS (m²)

Purposes: comms

External: N2YO · Heavens-Above · Gunter

§ Orbital elements

Epoch: 2026-05-24T09:26:29.152608Z

Period
93.38 min
Inclination
53.1581°
Eccentricity
0.0001157
Mean motion
15.42166601 rev/d
Perigee alt
438.9 km
Apogee alt
440.5 km
Semi-major
6,817.9 km
B*
6.9840e-4
RAAN
137.0645°
Arg perigee
86.1541°
Mean anomaly
273.9598°
Rev number
854

§ Raw data

STARLINK-372341 68535U 26068AD  26144.39339297  .00030106  00000+0  69840-3 0  99902 68535  53.1581 137.0645 0001157  86.1541 273.9598 15.42166601  8549

JSON: /api/v1/satellites/68535 · /tle

For live sub-satellite position, see the globe view (requires WebGL).

§ Visibility from observer

Set your observer location to see the next 7 days of passes ≥ 10°. The values pass through the URL so the page stays shareable.

No JS? Fill the form by hand. The geolocation button needs JavaScript.